This is the latest recevied weather packets stored in our database for station/object AB8Y-13. If no packets are shown the sender has not sent any weather packets the latest 10 day(s).
| Time | Temp. | Humidity | Pressure | Rain* | Wind** | Luminosity | Snow |
|---|---|---|---|---|---|---|---|
| 1777800651 | 0° C | 82% | 1013.1 hPa | 0 mm | - | 0 W/m² | - |
| 1777800346 | 0° C | 82% | 1013.3 hPa | 0 mm | - | 0 W/m² | - |
| 1777800043 | 0° C | 84% | 1013.3 hPa | 0 mm | - | 0 W/m² | - |
| 1777799738 | 0° C | 85% | 1013.5 hPa | 0 mm | - | 0 W/m² | - |
| 1777799436 | 0° C | 86% | 1013.4 hPa | 0 mm | - | 0 W/m² | - |
| 1777799132 | 0° C | 86% | 1013.4 hPa | 0 mm | - | 0 W/m² | - |
| 1777798827 | 0° C | 85% | 1013.6 hPa | 0 mm | - | 0 W/m² | - |
| 1777798523 | -0.56° C | 86% | 1013.5 hPa | 0 mm | - | 0 W/m² | - |
| 1777798221 | 0° C | 85% | 1013.6 hPa | 0 mm | - | 0 W/m² | - |
| 1777797918 | 0° C | 84% | 1013.9 hPa | 0 mm | - | 0 W/m² | - |
| 1777797616 | 0° C | 83% | 1013.9 hPa | 0 mm | - | 0 W/m² | - |
| 1777797313 | 0° C | 83% | 1013.7 hPa | 0 mm | - | 0 W/m² | - |
| 1777797010 | 0° C | 86% | 1013.9 hPa | 0 mm | - | 0 W/m² | - |
| 1777796707 | 0° C | 84% | 1014.1 hPa | 0 mm | - | 0 W/m² | - |
| 1777796403 | -0.56° C | 86% | 1014.1 hPa | 0 mm | - | 0 W/m² | - |
| 1777796098 | -0.56° C | 86% | 1014.1 hPa | 0 mm | - | 0 W/m² | - |
| 1777795795 | -0.56° C | 85% | 1013.9 hPa | 0 mm | - | 0 W/m² | - |
| 1777795491 | -0.56° C | 86% | 1013.9 hPa | 0 mm | - | 0 W/m² | - |
| 1777795188 | -0.56° C | 85% | 1014 hPa | 0 mm | - | 0 W/m² | - |
| 1777794884 | -0.56° C | 84% | 1014.2 hPa | 0 mm | - | 0 W/m² | - |
| 1777794582 | 0° C | 84% | 1014.1 hPa | 0 mm | - | 0 W/m² | - |
| 1777794276 | 0° C | 84% | 1014.4 hPa | 0 mm | - | 0 W/m² | - |
| 1777793972 | -0.56° C | 85% | 1014.2 hPa | 0 mm | - | 0 W/m² | - |
| 1777793670 | -0.56° C | 87% | 1014.3 hPa | 0 mm | - | 0 W/m² | - |
| 1777793368 | 0° C | 85% | 1014.3 hPa | 0 mm | - | 0 W/m² | - |
* Rain latest hour (hover to see other rain measurements)
** Current wind speed in m/s (hover to see current wind gust speed)